Weather in Monastyrschina

Russia / Smolensk Oblast     54°21′05″N   31°50′25″E
temp.,
°C
wind,
m/s
gust,
m/s
humid.,
%
clouds,
%
prec.,
mm/h
press.,
hPa
HPBL,
m
11 may, tue
tue1100:00+7e22745 0.0 102621
03:00+6ene337738 0.0 102729
06:00+6ene348054 0.0 102767
09:00+12ene466278 0.0 1026424
12:00+15ene564834 0.0 1025811
15:00+18ene565127 0.0 1023961
18:00+18ene46645 0.0 1022716
21:00+13ene49835 0.0 1023142
12 may, wed
wed1200:00+11e49920 0.0 1023167
03:00+10ese399713 0.0 1023224
06:00+9se49955 0.0 1024300
09:00+11se57680 0.0 1025680
12:00+15ese34565 0.0 10231371
15:00+16ene454985 0.0 10211790
18:00+14ne3565100 0.0 1018286
21:00+10sse2397100 3.3 1016156
13 may, thu
thu1300:00+9sse3893100 1.9 1015447
03:00+6e379629 1.9 1015147
06:00+8e61095100 3.8 1013827
09:00+8se6119177 5.8 1014822
12:00+11se7974100 0.3 10131258
15:00+12sse676978 0.5 10131273
18:00+13s466975 0.1 10121116
21:00+10se41080100 0.2 1013345
14 may, fri
fri1400:00+8se4118975 0.0 1013237
03:00+9se51280100 0.0 1013298
06:00+9se41085100 0.1 1013315
09:00+10ese61288100 0.5 1011345
12:00+17se7107541 0.1 1010882
15:00+20sse686770 1.5 10091428
18:00+19sse4778100 1.8 1007755
21:00+14sse3494100 5.5 100748
15 may, sat
sat1500:00+13sse34945 2.8 100665
03:00+11sse34964 3.4 100659
06:00+11s4109850 1.1 1006294
09:00+12ssw4896100 2.1 1006378
12:00+16sw797971 0.8 10071014
15:00+16sw697050 1.1 10081227
18:00+17sw687167 0.3 10081093
21:00+11sw38925 0.3 1009163